SL-27 R/B (40354 NORAD) Tracking and Keplerian Element Data

This shows tracking and keplerian element data for the satellite.

Feedback or suggestion? Click here.




ElementValue
Catalog40354
NameSL-27 R/B
Epoch Orbit20032
Epoch Day198.93340485
Epoch Year2018
RAAN36.1601
Inclination74.7382
Eccentricity0.0039722
Argument of Perigee220.099
Mean Anonmoly139.7289
Mean Motion15.39114041
Decay Rate6.32E-06
L11 40354U 14084B 18198.93340485 .00000632 00000-0 17243-4 0 9998
L22 40354 74.7382 36.1601 0039722 220.0990 139.7289 15.39114041200326

Live tracking and technical data element details for SL-27 R/B (NORAD 40354). SL-27 R/B can be tracked NOW for your location showing map with azimuth and elevation plus other details from your city location.

Track the satellite on the map from your city or location and see movement details for azimuth, elevation, latitude, longitude, range, height, and movement on the map or in text.







IsCatalogInMostPopularTable: catalog: 40354, numindb: 55
Update: records affected: 1



GetName: 40354 SL-27 R/B

Hit Count: updated at: Wed, 18 Jul 2018 20:16:11 GMT